CW2293 Weather Reports


Display with metric or nautical units.
time (UTC)temp
F
wind
direction
speed
MPH
gust
MPH
rain 1hr
in
rain 24hr
in
rain mn
in
humidity
%
barometer
mb
20240229010302 0 228 6.0 13.0 0.00 0.00 0.00 2 886.4
20240229005802 0 192 6.0 15.0 0.00 0.00 0.00 2 886.4
20240229005306 0 206 6.0 18.0 0.00 0.00 0.00 2 886.4
20240229004803 0 173 3.0 9.0 0.00 0.00 0.00 2 886.4
20240229004303 0 195 7.0 15.0 0.00 0.00 0.00 2 886.4
20240229003802 0 216 6.0 13.0 0.00 0.00 0.00 2 886.4
20240229003304 0 221 5.0 12.0 0.00 0.00 0.00 2 886.4
20240229002802 0 193 8.0 18.0 0.00 0.00 0.00 2 886.4
20240229002305 0 245 5.0 13.0 0.00 0.00 0.00 2 886.4
20240229001802 0 243 6.0 13.0 0.00 0.00 0.00 2 886.4
20240229000803 0 201 6.0 17.0 0.00 0.00 0.00 2 886.4
20240228235802 0 199 6.0 17.0 0.00 0.00 0.00 2 886.4
20240228235306 0 183 6.0 14.0 0.00 0.00 0.00 2 886.4
20240228234303 0 203 5.0 17.0 0.00 0.00 0.00 2 886.4
20240228233804 0 253 5.0 16.0 0.00 0.00 0.00 2 886.4
20240228233302 0 260 6.0 15.0 0.00 0.00 0.00 2 886.4
20240228232305 0 238 6.0 10.0 0.00 0.00 0.00 2 886.4
20240228231803 0 202 6.0 15.0 0.00 0.00 0.00 2 886.4
20240228231303 0 243 4.0 15.0 0.00 0.00 0.00 2 886.4
20240228230802 0 290 7.0 16.0 0.00 0.00 0.00 2 886.4
20240228230303 0 212 7.0 18.0 0.00 0.00 0.00 2 886.4
20240228225305 0 220 8.0 15.0 0.00 0.00 0.00 2 886.4
20240228224803 0 233 6.0 18.0 0.00 0.00 0.00 2 886.4
20240228223804 0 207 6.0 17.0 0.00 0.00 0.00 2 886.4
20240228223305 0 256 6.0 12.0 0.00 0.00 0.00 2 886.4
20240228222305 0 186 7.0 14.0 0.00 0.00 0.00 2 886.4
20240228220804 0 214 7.0 16.0 0.00 0.00 0.00 2 886.4
20240228220302 0 213 5.0 14.0 0.00 0.00 0.00 2 886.4
20240228215803 0 169 6.0 21.0 0.00 0.00 0.00 2 886.4
20240228215305 0 234 9.0 20.0 0.00 0.00 0.00 2 886.4
20240228214804 0 230 6.0 13.0 0.00 0.00 0.00 2 886.4
20240228214303 0 233 5.0 20.0 0.00 0.00 0.00 2 886.4
20240228213804 0 232 6.0 15.0 0.00 0.00 0.00 2 886.4
20240228213303 0 202 5.0 10.0 0.00 0.00 0.00 2 886.4
20240228212803 0 195 3.0 18.0 0.00 0.00 0.00 2 886.4
20240228212306 0 212 4.0 10.0 0.00 0.00 0.00 2 886.4
20240228211803 0 218 6.0 16.0 0.00 0.00 0.00 2 886.4
20240228211304 0 183 6.0 17.0 0.00 0.00 0.00 2 886.4
20240228210803 0 190 5.0 13.0 0.00 0.00 0.00 2 886.4
20240228210303 0 259 5.0 12.0 0.00 0.00 0.00 2 886.4
20240228205803 0 278 6.0 13.0 0.00 0.00 0.00 2 886.4
20240228204303 0 218 6.0 17.0 0.00 0.00 0.00 2 886.4
20240228203803 0 268 4.0 10.0 0.00 0.00 0.00 2 886.4
20240228203302 0 228 6.0 12.0 0.00 0.00 0.00 2 886.4
20240228202804 0 261 8.0 12.0 0.00 0.00 0.00 2 886.4
20240228202306 0 229 6.0 12.0 0.00 0.00 0.00 2 886.4
20240228201803 0 258 5.0 15.0 0.00 0.00 0.00 2 886.4
20240228201302 0 267 6.0 13.0 0.00 0.00 0.00 2 886.4
20240228200804 0 223 6.0 16.0 0.00 0.00 0.00 2 886.4
20240228200302 0 188 5.0 15.0 0.00 0.00 0.00 2 886.4
20240228195306 0 236 5.0 16.0 0.00 0.00 0.00 2 886.4
20240228194803 0 180 5.0 15.0 0.00 0.00 0.00 2 886.4
20240228194304 0 248 6.0 16.0 0.00 0.00 0.00 2 886.4
20240228193804 0 255 2.0 14.0 0.00 0.00 0.00 2 886.4
20240228192804 0 160 0.0 0.0 0.00 0.00 0.00 2 886.4
20240228192306 0 160 0.0 0.0 0.00 0.00 0.00 2 886.4
20240228191803 0 160 0.0 0.0 0.00 0.00 0.00 2 886.4
20240228190802 0 160 0.0 0.0 0.00 0.00 0.00 2 886.4
20240228190303 0 160 0.0 0.0 0.00 0.00 0.00 2 886.4
20240228185804 0 160 0.0 0.0 0.00 0.00 0.00 2 886.4
20240228185306 0 160 0.0 0.0 0.00 0.00 0.00 2 886.4
20240228184804 0 160 0.0 0.0 0.00 0.00 0.00 2 886.4
20240228184302 0 160 0.0 0.0 0.00 0.00 0.00 2 886.4
20240228183803 0 160 0.0 0.0 0.00 0.00 0.00 2 886.4
20240228183304 0 160 0.0 0.0 0.00 0.00 0.00 2 886.4
20240228182306 0 160 0.0 0.0 0.00 0.00 0.00 2 886.4
20240228181802 0 160 0.0 9.0 0.00 0.00 0.00 2 886.4
20240228181302 0 194 4.0 10.0 0.00 0.00 0.00 2 886.4
20240228180302 0 226 7.0 13.0 0.00 0.00 0.00 2 886.4
20240228175803 0 277 6.0 15.0 0.00 0.00 0.00 2 886.4
20240228175306 0 172 0.0 0.0 0.00 0.00 0.00 2 886.4
20240228174802 0 172 0.0 0.0 0.00 0.00 0.00 2 886.4
20240228174303 0 172 0.0 0.0 0.00 0.00 0.00 2 886.4
20240228173802 0 172 0.0 0.0 0.00 0.00 0.00 2 886.4
20240228173302 0 172 0.0 0.0 0.00 0.00 0.00 2 886.4
20240228172803 0 172 0.0 0.0 0.00 0.00 0.00 2 886.4
20240228172305 0 172 0.0 13.0 0.00 0.00 0.00 2 886.4
20240228171802 0 185 6.0 14.0 0.00 0.00 0.00 2 886.4
20240228171302 0 261 7.0 18.0 0.00 0.00 0.00 2 886.4
20240228170803 0 215 9.0 17.0 0.00 0.00 0.00 2 886.4
20240228170303 0 193 6.0 18.0 0.00 0.00 0.00 2 886.4
20240228165802 0 235 6.0 13.0 0.00 0.00 0.00 2 886.4
20240228164803 0 210 8.0 21.0 0.00 0.00 0.00 2 886.4
20240228164302 0 335 0.0 0.0 0.00 0.00 0.00 2 886.4
20240228163803 0 335 0.0 0.0 0.00 0.00 0.00 2 886.4
20240228163303 0 335 0.0 0.0 0.00 0.00 0.00 2 886.4
20240228162802 0 335 0.0 0.0 0.00 0.00 0.00 2 886.4
20240228162305 0 335 0.0 0.0 0.00 0.00 0.00 2 886.4
20240228161803 0 335 0.0 0.0 0.00 0.00 0.00 2 886.4
20240228161302 0 335 0.0 0.0 0.00 0.00 0.00 2 886.4
20240228160304 0 335 0.0 0.0 0.00 0.00 0.00 2 886.4
20240228155306 0 335 0.0 0.0 0.00 0.00 0.00 2 886.4
20240228154803 0 335 0.0 0.0 0.00 0.00 0.00 2 886.4
20240228154304 0 335 0.0 0.0 0.00 0.00 0.00 2 886.4
20240228153802 0 335 0.0 0.0 0.00 0.00 0.00 2 886.4
20240228153302 0 335 0.0 0.0 0.00 0.00 0.00 2 886.4
20240228152803 0 335 0.0 0.0 0.00 0.00 0.00 2 886.4
20240228152306 0 335 0.0 0.0 0.00 0.00 0.00 2 886.4
20240228151803 0 335 0.0 0.0 0.00 0.00 0.00 2 886.4
20240228151304 0 335 0.0 0.0 0.00 0.00 0.00 2 886.4
20240228150803 0 335 0.0 0.0 0.00 0.00 0.00 2 886.4
20240228150303 0 335 0.0 0.0 0.00 0.00 0.00 2 886.4
20240228145306 0 335 0.0 0.0 0.00 0.00 0.00 2 886.4
20240228144302 0 335 0.0 0.0 0.00 0.00 0.00 2 886.4
20240228143803 0 335 0.0 0.0 0.00 0.00 0.00 2 886.4
20240228143303 0 335 0.0 0.0 0.00 0.00 0.00 2 886.4
20240228142803 0 335 0.0 0.0 0.00 0.00 0.00 2 886.4
20240228142306 0 335 0.0 0.0 0.00 0.00 0.00 2 886.4
20240228141303 0 335 0.0 0.0 0.00 0.00 0.00 2 886.4
20240228140302 0 335 0.0 0.0 0.00 0.00 0.00 2 886.4
20240228135804 0 335 0.0 0.0 0.00 0.00 0.00 2 886.4
20240228134802 0 207 6.0 14.0 0.00 0.00 0.00 2 886.4
20240228134302 0 244 4.0 12.0 0.00 0.00 0.00 2 886.4
20240228133803 0 251 1.0 7.0 0.00 0.00 0.00 2 886.4
20240228133302 0 196 2.0 8.0 0.00 0.00 0.00 2 886.4
20240228132803 0 230 1.0 5.0 0.00 0.00 0.00 2 886.4
20240228132306 0 124 1.0 5.0 0.00 0.00 0.00 2 886.4
20240228131803 0 239 5.0 12.0 0.00 0.00 0.00 2 886.4
20240228131304 0 193 2.0 8.0 0.00 0.00 0.00 2 886.4
20240228130302 0 134 1.0 7.0 0.00 0.00 0.00 2 886.4
20240228125804 0 145 2.0 9.0 0.00 0.00 0.00 2 886.4
20240228124304 0 191 2.0 8.0 0.00 0.00 0.00 2 886.4
20240228123304 0 195 2.0 9.0 0.00 0.00 0.00 2 886.4
20240228122802 0 201 2.0 6.0 0.00 0.00 0.00 2 886.4
20240228122306 0 223 2.0 5.0 0.00 0.00 0.00 2 886.4
20240228121803 0 252 3.0 9.0 0.00 0.00 0.00 2 886.4
20240228121303 0 182 0.0 7.0 0.00 0.00 0.00 2 886.4
20240228120802 0 160 3.0 9.0 0.00 0.00 0.00 2 886.4
20240228120302 0 203 0.0 9.0 0.00 0.00 0.00 2 886.4
20240228115803 0 231 4.0 14.0 0.00 0.00 0.00 2 886.4
20240228115306 0 238 2.0 9.0 0.00 0.00 0.00 2 886.4
20240228114802 0 206 4.0 9.0 0.00 0.00 0.00 2 886.4
20240228114302 0 208 4.0 10.0 0.00 0.00 0.00 2 886.4
20240228113803 0 208 3.0 12.0 0.00 0.00 0.00 2 886.4
20240228113303 0 210 3.0 9.0 0.00 0.00 0.00 2 886.4
20240228111803 0 241 2.0 9.0 0.00 0.00 0.00 2 886.4
20240228111304 0 277 2.0 9.0 0.00 0.00 0.00 2 886.4
20240228110802 0 230 3.0 10.0 0.00 0.00 0.00 2 886.4
20240228110302 0 208 3.0 9.0 0.00 0.00 0.00 2 886.4
20240228105803 0 254 1.0 7.0 0.00 0.00 0.00 2 886.4
20240228105306 0 167 1.0 8.0 0.00 0.00 0.00 2 886.4
20240228104802 0 246 3.0 9.0 0.00 0.00 0.00 2 886.4
20240228101803 0 224 2.0 13.0 0.00 0.00 0.00 2 886.4
20240228100802 0 358 2.0 8.0 0.00 0.00 0.00 2 886.4
20240228100303 0 254 2.0 7.0 0.00 0.00 0.00 2 886.4
20240228095803 0 194 2.0 13.0 0.00 0.00 0.00 2 886.4
20240228095306 0 197 2.0 9.0 0.00 0.00 0.00 2 886.4
20240228094803 0 270 5.0 9.0 0.00 0.00 0.00 2 886.4
20240228094303 0 296 1.0 8.0 0.00 0.00 0.00 2 886.4
20240228093802 0 225 5.0 10.0 0.00 0.00 0.00 2 886.4
20240228092804 0 235 3.0 9.0 0.00 0.00 0.00 2 886.4
20240228092305 0 186 1.0 10.0 0.00 0.00 0.00 2 886.4
20240228091803 0 216 3.0 10.0 0.00 0.00 0.00 2 886.4
20240228090803 0 250 2.0 10.0 0.00 0.00 0.00 2 886.4
20240228090302 0 241 1.0 3.0 0.00 0.00 0.00 2 886.4
20240228085804 0 226 2.0 9.0 0.00 0.00 0.00 2 886.4
20240228085306 0 231 1.0 6.0 0.00 0.00 0.00 2 886.4
20240228084303 0 209 3.0 10.0 0.00 0.00 0.00 2 886.4
20240228083802 0 231 2.0 8.0 0.00 0.00 0.00 2 886.4
20240228083302 0 218 3.0 7.0 0.00 0.00 0.00 2 886.4
20240228082306 0 237 3.0 7.0 0.00 0.00 0.00 2 886.4
20240228080803 0 233 4.0 13.0 0.00 0.00 0.00 2 886.4
20240228080303 0 204 6.0 13.0 0.00 0.00 0.00 2 886.4
20240228075804 0 279 2.0 8.0 0.00 0.00 0.00 2 886.4
20240228074802 0 215 2.0 9.0 0.00 0.00 0.00 2 886.4
20240228073802 0 233 4.0 14.0 0.00 0.00 0.00 2 886.4
20240228073302 0 219 3.0 13.0 0.00 0.00 0.00 2 886.4
20240228072804 0 186 3.0 10.0 0.00 0.00 0.00 2 886.4
20240228071803 0 200 6.0 12.0 0.00 0.00 0.00 2 886.4
20240228071303 0 218 7.0 14.0 0.00 0.00 0.00 2 886.4
20240228070802 0 245 7.0 12.0 0.00 0.00 0.00 2 886.4
20240228070303 0 203 4.0 9.0 0.00 0.00 0.00 2 886.4
20240228065802 0 243 6.0 15.0 0.00 0.00 0.00 2 886.4
20240228065305 0 222 3.0 16.0 0.00 0.00 0.00 2 886.4
20240228064803 0 260 3.0 17.0 0.00 0.00 0.00 2 886.4
20240228064303 0 191 6.0 13.0 0.00 0.00 0.00 2 886.4
20240228063804 0 229 3.0 7.0 0.00 0.00 0.00 2 886.4
20240228063303 0 235 6.0 14.0 0.00 0.00 0.00 2 886.4
20240228062802 0 235 6.0 10.0 0.00 0.00 0.00 2 886.4
20240228062306 0 222 7.0 16.0 0.00 0.00 0.00 2 886.4
20240228061803 0 209 7.0 14.0 0.00 0.00 0.00 2 886.4
20240228060803 0 229 5.0 13.0 0.00 0.00 0.00 2 886.4
20240228060303 0 186 6.0 14.0 0.00 0.00 0.00 2 886.4
20240228055803 0 235 7.0 14.0 0.00 0.00 0.00 2 886.4
20240228055306 0 230 6.0 15.0 0.00 0.00 0.00 2 886.4
20240228054804 0 207 8.0 14.0 0.00 0.00 0.00 2 886.4
20240228054304 0 211 7.0 13.0 0.00 0.00 0.00 2 886.4
20240228053804 0 263 6.0 14.0 0.00 0.00 0.00 2 886.4
20240228052306 0 273 3.0 15.0 0.00 0.00 0.00 2 886.4
20240228051803 0 175 7.0 15.0 0.00 0.00 0.00 2 886.4
20240228051304 0 251 4.0 14.0 0.00 0.00 0.00 2 886.4
20240228050803 0 205 5.0 9.0 0.00 0.00 0.00 2 886.4
20240228050302 0 196 4.0 14.0 0.00 0.00 0.00 2 886.4
20240228045803 0 207 5.0 9.0 0.00 0.00 0.00 2 886.4
20240228045305 0 212 2.0 12.0 0.00 0.00 0.00 2 886.4
20240228044803 0 210 2.0 12.0 0.00 0.00 0.00 2 886.4
20240228044303 0 215 5.0 10.0 0.00 0.00 0.00 2 886.4
20240228043802 0 217 6.0 10.0 0.00 0.00 0.00 2 886.4
20240228043302 0 224 3.0 8.0 0.00 0.00 0.00 2 886.4
20240228042802 0 206 3.0 9.0 0.00 0.00 0.00 2 886.4
20240228041803 0 251 2.0 7.0 0.00 0.00 0.00 2 886.4
20240228041303 0 222 3.0 8.0 0.00 0.00 0.00 2 886.4
20240228040802 0 171 3.0 8.0 0.00 0.00 0.00 2 886.4
20240228040304 0 196 3.0 9.0 0.00 0.00 0.00 2 886.4
20240228035803 0 220 5.0 9.0 0.00 0.00 0.00 2 886.4
20240228035306 0 242 4.0 9.0 0.00 0.00 0.00 2 886.4
20240228034804 0 231 5.0 9.0 0.00 0.00 0.00 2 886.4
20240228033802 0 261 3.0 9.0 0.00 0.00 0.00 2 886.4
20240228032802 0 217 4.0 7.0 0.00 0.00 0.00 2 886.4
20240228032306 0 236 2.0 6.0 0.00 0.00 0.00 2 886.4
20240228031803 0 220 4.0 12.0 0.00 0.00 0.00 2 886.4
20240228031303 0 309 2.0 9.0 0.00 0.00 0.00 2 886.4
20240228030804 0 286 3.0 8.0 0.00 0.00 0.00 2 886.4
20240228030303 0 253 2.0 7.0 0.00 0.00 0.00 2 886.4
20240228024803 0 233 5.0 10.0 0.00 0.00 0.00 2 886.4
20240228024303 0 102 3.0 7.0 0.00 0.00 0.00 2 886.4
20240228023803 0 201 7.0 15.0 0.00 0.00 0.00 2 886.4
20240228023303 0 202 2.0 9.0 0.00 0.00 0.00 2 886.4
20240228022804 0 238 4.0 10.0 0.00 0.00 0.00 2 886.4
20240228022305 0 179 2.0 6.0 0.00 0.00 0.00 2 886.4
20240228021803 0 260 7.0 14.0 0.00 0.00 0.00 2 886.4
20240228021304 0 233 3.0 7.0 0.00 0.00 0.00 2 886.4
20240228020803 0 206 3.0 10.0 0.00 0.00 0.00 2 886.4
20240228020303 0 230 4.0 10.0 0.00 0.00 0.00 2 886.4
20240228015803 0 177 3.0 8.0 0.00 0.00 0.00 2 886.4
20240228015306 0 244 6.0 10.0 0.00 0.00 0.00 2 886.4
20240228014303 0 207 6.0 9.0 0.00 0.00 0.00 2 886.4
20240228013803 0 242 6.0 10.0 0.00 0.00 0.00 2 886.4
20240228012802 0 210 2.0 9.0 0.00 0.00 0.00 2 886.4
20240228012305 0 207 6.0 12.0 0.00 0.00 0.00 2 886.4
20240228011803 0 230 3.0 7.0 0.00 0.00 0.00 2 886.4
20240228011303 0 231 5.0 13.0 0.00 0.00 0.00 2 886.4
20240228010803 0 268 4.0 9.0 0.00 0.00 0.00 2 886.4